Weather in Peles

Russia / Perm Krai     60°36′56″N   51°54′13″E
temp.,
°C
wind,
m/s
gust,
m/s
humid.,
%
clouds,
%
prec.,
mm/h
press.,
hPa
HPBL,
m
27 february, sat
sat2723:00−20se41295100 0.1 1013461
02:00−21se41196100 0.0 1012397
05:00−21ese4119599 0.0 1011361
08:00−21ese4119694 0.0 1010349
11:00−18ese489397 0.0 1011414
14:00−14ese4887100 0.0 1010573
17:00−12e3787100 0.0 1010611
20:00−17ene369662 0.0 1011133
28 february, sun
sun2823:00−19ene239831 0.0 101264
02:00−20e2310082 0.0 101247
05:00−23e239853 0.0 101436
08:00−24e23950 0.0 101434
11:00−20e24900 0.0 1015228
14:00−15ene23800 0.0 1014396
17:00−13ne238516 0.0 1015406
20:00−18ne12950 0.0 101620
1 march, mon
mon123:00−21ene11980 0.0 101820
02:00−21ssw01980 0.0 101920
05:00−22wsw11980 0.0 102020
08:00−22sw22980 0.0 102020
11:00−18ssw24938 0.0 1020182
14:00−12sw368717 0.0 1018412
17:00−11ssw488932 0.0 1016487
20:00−13ssw5119496 0.0 1013410
2 march, tue
tue223:00−14ssw5129598 0.1 1011380
02:00−13ssw51394100 0.1 1007444
05:00−13ssw51194100 0.8 1004504
08:00−13ssw51194100 0.7 1001495
11:00−12ssw51094100 1.4 999442
14:00−10s4892100 0.6 999449
17:00−9s3794100 1.3 998415
20:00−9s2696100 0.5 999249
3 march, wed
wed323:00−10ssw249798 0.8 1000101
02:00−11sw129788 0.1 99924
05:00−10w229790 0.2 100021
08:00−9wnw249794 0.2 100095
11:00−6nnw479292 0.3 1002539
14:00−6nw4789100 0.1 1003631
17:00−7nw4885100 0.2 1003960
20:00−10nw2395100 0.1 100453